DAH6013 DABC-DAAG

Flight info

Callsign DAH6013
Flight time 0h 35m
Altitude 24000
Route CSO J7 LIMON G26 ZEM
Aircraft B738/M-SDE2E3FGHIRWXY/LB1

Departure

Time 2026-05-08 21:12
Airport Mohamed Boudiaf International Airport (DABC)

Arrival

Time 2026-05-08 21:47
Airport Houari Boumediene Airport (DAAG)
Time Latitude Longitude Altitude Speed Heading
2026-05-08 21:09 36.27254 6.61791 2318 ft 51 kts 158°
2026-05-08 21:09 36.26923 6.61948 2318 ft 48 kts 159°
2026-05-08 21:09 36.26738 6.62043 2315 ft 21 kts 159°
2026-05-08 21:10 36.26586 6.62113 2310 ft 25 kts 159°
2026-05-08 21:10 36.26421 6.62187 2303 ft 15 kts 161°
2026-05-08 21:10 36.26305 6.62229 2297 ft 18 kts 147°
2026-05-08 21:10 36.26315 6.62255 2296 ft 0 kts 309°
2026-05-08 21:11 36.26353 6.62226 2299 ft 25 kts 332°
2026-05-08 21:11 36.26696 6.62051 2315 ft 83 kts 336°
2026-05-08 21:11 36.27552 6.61664 2361 ft 171 kts 338°
2026-05-08 21:11 36.28855 6.61095 2824 ft 221 kts 339°
2026-05-08 21:12 36.30282 6.60199 3889 ft 238 kts 323°
2026-05-08 21:12 36.31421 6.58783 5148 ft 244 kts 303°
2026-05-08 21:12 36.32184 6.56829 5960 ft 274 kts 285°
2026-05-08 21:12 36.32356 6.54486 7181 ft 285 kts 269°
2026-05-08 21:13 36.32354 6.52069 8642 ft 286 kts 273°
2026-05-08 21:13 36.32596 6.49634 10034 ft 290 kts 282°
2026-05-08 21:13 36.33106 6.47242 11232 ft 298 kts 288°
2026-05-08 21:13 36.33784 6.44771 12203 ft 315 kts 291°
2026-05-08 21:14 36.34552 6.42159 13125 ft 332 kts 291°
2026-05-08 21:14 36.35358 6.39421 14035 ft 349 kts 291°
2026-05-08 21:14 36.36176 6.36591 15075 ft 359 kts 291°
2026-05-08 21:14 36.37015 6.33637 16317 ft 364 kts 290°
2026-05-08 21:15 36.37841 6.30703 17463 ft 368 kts 290°
2026-05-08 21:15 36.38683 6.27697 18582 ft 373 kts 290°
2026-05-08 21:15 36.39527 6.24682 19664 ft 378 kts 291°
2026-05-08 21:15 36.40392 6.21588 20726 ft 382 kts 291°
2026-05-08 21:16 36.41259 6.18488 21756 ft 386 kts 291°
2026-05-08 21:16 36.42136 6.15346 22767 ft 390 kts 291°
2026-05-08 21:16 36.43028 6.12149 23730 ft 395 kts 291°
2026-05-08 21:16 36.43930 6.08913 24225 ft 400 kts 291°
2026-05-08 21:17 36.44836 6.05659 24303 ft 401 kts 291°
2026-05-08 21:17 36.45737 6.02409 24302 ft 398 kts 291°
2026-05-08 21:17 36.46640 5.99152 24300 ft 399 kts 291°
2026-05-08 21:17 36.47546 5.95880 24297 ft 399 kts 291°
2026-05-08 21:18 36.48450 5.92614 24302 ft 400 kts 290°
2026-05-08 21:18 36.49353 5.89346 24307 ft 400 kts 290°
2026-05-08 21:18 36.50251 5.86089 24304 ft 400 kts 290°
2026-05-08 21:18 36.51148 5.82837 24307 ft 400 kts 290°
2026-05-08 21:19 36.52047 5.79575 24310 ft 400 kts 290°
2026-05-08 21:19 36.52949 5.76294 24312 ft 400 kts 290°
2026-05-08 21:19 36.53845 5.73029 24317 ft 400 kts 290°
2026-05-08 21:19 36.54744 5.69753 24312 ft 399 kts 290°
2026-05-08 21:20 36.55631 5.66517 24313 ft 400 kts 290°
2026-05-08 21:20 36.56529 5.63238 24316 ft 400 kts 290°
2026-05-08 21:20 36.57418 5.59985 24313 ft 399 kts 290°
2026-05-08 21:20 36.58320 5.56683 24317 ft 400 kts 290°
2026-05-08 21:21 36.59204 5.53439 24316 ft 400 kts 290°
2026-05-08 21:21 36.60096 5.50165 24312 ft 400 kts 290°
2026-05-08 21:21 36.60991 5.46874 24314 ft 400 kts 290°
2026-05-08 21:21 36.61877 5.43615 24307 ft 400 kts 290°
2026-05-08 21:22 36.62758 5.40365 24302 ft 400 kts 290°
2026-05-08 21:22 36.63647 5.37085 24299 ft 400 kts 290°
2026-05-08 21:22 36.64538 5.33795 24293 ft 401 kts 290°
2026-05-08 21:22 36.65434 5.30483 24285 ft 401 kts 290°
2026-05-08 21:23 36.66314 5.27221 24281 ft 400 kts 290°
2026-05-08 21:23 36.67197 5.23949 24279 ft 401 kts 289°
2026-05-08 21:23 36.68089 5.20635 24274 ft 401 kts 289°
2026-05-08 21:23 36.68980 5.17325 24270 ft 401 kts 290°
2026-05-08 21:24 36.69856 5.14062 24267 ft 401 kts 290°
2026-05-08 21:24 36.70738 5.10776 24264 ft 401 kts 289°
2026-05-08 21:24 36.71625 5.07478 24265 ft 401 kts 290°
2026-05-08 21:24 36.72562 5.04211 24266 ft 401 kts 291°
2026-05-08 21:25 36.73545 5.00984 24263 ft 401 kts 292°
2026-05-08 21:25 36.74559 4.97738 24263 ft 401 kts 292°
2026-05-08 21:25 36.75565 4.94532 24260 ft 401 kts 292°
2026-05-08 21:25 36.76588 4.91263 24258 ft 401 kts 292°
2026-05-08 21:26 36.77596 4.88019 24263 ft 402 kts 292°
2026-05-08 21:26 36.78589 4.84809 24263 ft 402 kts 292°
2026-05-08 21:26 36.79594 4.81543 24270 ft 402 kts 292°
2026-05-08 21:26 36.80581 4.78324 24269 ft 402 kts 292°
2026-05-08 21:27 36.81587 4.75032 24263 ft 401 kts 292°
2026-05-08 21:27 36.82574 4.71796 24271 ft 401 kts 292°
2026-05-08 21:27 36.83562 4.68551 24270 ft 401 kts 292°
2026-05-08 21:27 36.84553 4.65289 24266 ft 401 kts 291°
2026-05-08 21:28 36.85541 4.62037 24264 ft 410 kts 291°
2026-05-08 21:28 36.86557 4.58688 24193 ft 415 kts 291°
2026-05-08 21:28 36.87570 4.55342 23781 ft 405 kts 291°
2026-05-08 21:28 36.88546 4.52112 23148 ft 398 kts 291°
2026-05-08 21:29 36.89518 4.48891 22399 ft 394 kts 291°
2026-05-08 21:29 36.90471 4.45730 21796 ft 386 kts 291°
2026-05-08 21:29 36.91403 4.42633 21283 ft 388 kts 291°
2026-05-08 21:29 36.92375 4.39408 20669 ft 400 kts 291°
2026-05-08 21:30 36.93347 4.36178 20045 ft 398 kts 291°
2026-05-08 21:30 36.94312 4.32963 19405 ft 389 kts 291°
2026-05-08 21:30 36.95244 4.29854 18855 ft 380 kts 291°
2026-05-08 21:30 36.96157 4.26802 18342 ft 370 kts 291°
2026-05-08 21:31 36.97047 4.23823 17793 ft 377 kts 291°
2026-05-08 21:31 36.97988 4.20679 17152 ft 386 kts 291°
2026-05-08 21:31 36.98920 4.17561 16542 ft 383 kts 291°
2026-05-08 21:31 36.99828 4.14517 15925 ft 375 kts 291°
2026-05-08 21:32 37.00736 4.11467 15331 ft 367 kts 290°
2026-05-08 21:32 37.01610 4.08527 14730 ft 361 kts 290°
2026-05-08 21:32 37.02470 4.05634 14143 ft 356 kts 290°
2026-05-08 21:32 37.03357 4.02648 13528 ft 372 kts 290°
2026-05-08 21:33 37.04110 4.00112 12991 ft 371 kts 290°
2026-05-08 21:33 37.04113 4.00102 12988 ft 371 kts 290°
2026-05-08 21:33 37.04671 3.98221 12620 ft 366 kts 290°
2026-05-08 21:33 37.05127 3.96643 12328 ft 362 kts 289°
2026-05-08 21:34 37.05509 3.95020 11973 ft 358 kts 283°
2026-05-08 21:34 37.05733 3.93537 11671 ft 354 kts 277°
2026-05-08 21:34 37.05687 3.91037 11264 ft 345 kts 260°
2026-05-08 21:34 37.04902 3.88293 10972 ft 329 kts 242°
2026-05-08 21:35 37.03679 3.85966 10859 ft 310 kts 233°
2026-05-08 21:35 37.02298 3.84008 10737 ft 295 kts 226°
2026-05-08 21:35 37.00839 3.82268 10601 ft 281 kts 223°
2026-05-08 21:35 36.99394 3.80632 10473 ft 285 kts 223°
2026-05-08 21:36 36.97934 3.78962 10297 ft 286 kts 223°
2026-05-08 21:36 36.96492 3.77278 9933 ft 281 kts 224°
2026-05-08 21:36 36.95088 3.75615 9561 ft 277 kts 224°
2026-05-08 21:36 36.93697 3.73956 9217 ft 273 kts 224°
2026-05-08 21:37 36.92341 3.72340 8880 ft 268 kts 224°
2026-05-08 21:37 36.91001 3.70744 8549 ft 264 kts 224°
2026-05-08 21:37 36.89695 3.69191 8237 ft 260 kts 224°
2026-05-08 21:37 36.88395 3.67645 7911 ft 256 kts 224°
2026-05-08 21:38 36.87118 3.66128 7572 ft 252 kts 224°
2026-05-08 21:38 36.85859 3.64633 7290 ft 246 kts 224°
2026-05-08 21:38 36.84623 3.63166 6976 ft 244 kts 224°
2026-05-08 21:38 36.83400 3.61716 6676 ft 241 kts 224°
2026-05-08 21:39 36.82190 3.60281 6380 ft 248 kts 224°
2026-05-08 21:39 36.80896 3.58748 6054 ft 256 kts 224°
2026-05-08 21:39 36.79606 3.57221 5723 ft 254 kts 224°
2026-05-08 21:39 36.78350 3.55689 5347 ft 252 kts 225°
2026-05-08 21:40 36.77158 3.54138 5001 ft 249 kts 229°
2026-05-08 21:40 36.76334 3.52286 4931 ft 235 kts 252°
2026-05-08 21:40 36.76267 3.50346 4876 ft 227 kts 284°
2026-05-08 21:41 36.78055 3.47025 4085 ft 237 kts 307°
2026-05-08 21:41 36.79020 3.45375 3775 ft 229 kts 300°
2026-05-08 21:41 36.79666 3.43629 3529 ft 209 kts 288°
2026-05-08 21:41 36.79994 3.42004 3294 ft 179 kts 277°
2026-05-08 21:42 36.80128 3.40572 3116 ft 156 kts 271°
2026-05-08 21:42 36.79982 3.39334 2934 ft 134 kts 240°
2026-05-08 21:42 36.79427 3.38498 2805 ft 122 kts 225°
2026-05-08 21:42 36.78905 3.37671 2675 ft 121 kts 231°
2026-05-08 21:43 36.78394 3.36815 2542 ft 121 kts 229°
2026-05-08 21:43 36.77862 3.36014 2455 ft 120 kts 228°
2026-05-08 21:43 36.77320 3.35194 2308 ft 128 kts 228°
2026-05-08 21:43 36.76745 3.34314 2179 ft 132 kts 229°
2026-05-08 21:44 36.76180 3.33383 1896 ft 137 kts 231°
2026-05-08 21:44 36.75638 3.32401 1527 ft 139 kts 235°
2026-05-08 21:44 36.75114 3.31391 1169 ft 141 kts 233°
2026-05-08 21:44 36.74526 3.30452 906 ft 135 kts 229°
2026-05-08 21:45 36.73924 3.29547 759 ft 132 kts 231°
2026-05-08 21:45 36.73392 3.28624 617 ft 131 kts 234°
2026-05-08 21:45 36.72860 3.27693 519 ft 133 kts 231°
2026-05-08 21:45 36.72264 3.26774 408 ft 134 kts 230°
2026-05-08 21:46 36.71712 3.25844 260 ft 132 kts 234°
2026-05-08 21:46 36.71159 3.24917 108 ft 134 kts 232°
2026-05-08 21:46 36.70610 3.24039 90 ft 124 kts 233°
2026-05-08 21:46 36.70103 3.23212 91 ft 115 kts 238°
2026-05-08 21:47 36.69715 3.22527 85 ft 86 kts 238°
2026-05-08 21:47 36.69465 3.22127 79 ft 38 kts 269°
2026-05-08 21:47 36.69608 3.21943 77 ft 11 kts 346°
2026-05-08 21:47 36.69687 3.21959 78 ft 11 kts 38°
2026-05-08 21:48 36.69731 3.22045 78 ft 11 kts 66°
2026-05-08 21:48 36.69772 3.22129 78 ft 9 kts 50°
2026-05-08 21:48 36.69814 3.22188 78 ft 9 kts 48°